FW6710 Weather Reports


time (UTC)temp
C
wind
direction
speed
KPH
gust
KPH
rain 1hr
cm
rain 24hr
cm
rain mn
cm
humidity
%
barometer
mb
20260505041607 13 0.0 0.0 0.18 0.18 0.18 86 1012.6
20260505034557 14 0.0 0.0 0.00 0.00 0.00 81 1012.8
20260505033056 15 0.0 0.0 0.00 0.00 0.00 76 1012.7
20260505031601 16 0.0 0.0 0.00 0.00 0.00 68 1012.9
20260505030104 16 0.0 0.0 0.00 0.00 0.00 65 1012.7
20260505024559 16 0.0 0.0 0.00 0.00 0.00 64 1012.7
20260505023056 16 0.0 0.0 0.00 0.00 0.00 65 1012.8
20260505021601 17 0.0 0.0 0.00 0.00 0.00 64 1012.8
20260505014618 17 0.0 0.0 0.00 0.00 0.00 60 1012.9
20260505013058 17 0.0 0.0 0.00 0.00 0.00 59 1012.8
20260505011607 17 0.0 0.0 0.00 0.00 0.00 59 1012.8
20260505010058 17 0.0 0.0 0.00 0.00 0.00 58 1013.0
20260505004600 17 0.0 0.0 0.00 0.00 0.00 58 1013.1
20260505003057 17 0.0 0.0 0.00 0.00 0.00 57 1013.2
20260505001632 17 0.0 0.0 0.00 0.00 0.00 56 1013.4
20260505000138 17 0.0 0.0 0.00 0.00 0.00 58 1013.6
20260504234614 17 0.0 0.0 0.00 0.00 0.00 59 1013.8
20260504233109 17 0.0 0.0 0.00 0.00 0.00 60 1013.9
20260504231558 17 0.0 0.0 0.00 0.00 0.00 61 1013.9
20260504230105 17 0.0 0.0 0.00 0.00 0.00 62 1014.2
20260504224610 16 0.0 0.0 0.00 0.00 0.00 64 1014.4
20260504223058 16 0.0 0.0 0.00 0.00 0.00 67 1014.4
20260504221600 16 0.0 0.0 0.00 0.00 0.00 67 1014.5
20260504220101 16 0.0 0.0 0.00 0.00 0.00 66 1014.6
20260504214609 16 0.0 0.0 0.00 0.00 0.00 65 1014.5
20260504213148 17 0.0 0.0 0.00 0.00 0.00 64 1014.5
20260504211609 17 0.0 0.0 0.00 0.00 0.00 63 1014.6
20260504210058 17 0.0 0.0 0.00 0.00 0.00 62 1014.6
20260504204604 17 0.0 0.0 0.00 0.00 0.00 61 1014.5
20260504203121 17 0.0 0.0 0.00 0.00 0.00 60 1014.4
20260504201607 18 0.0 0.0 0.00 0.00 0.00 58 1014.5
20260504200101 18 0.0 0.0 0.00 0.00 0.00 56 1014.3
20260504194608 18 0.0 0.0 0.00 0.00 0.00 55 1014.2
20260504193112 18 0.0 0.0 0.00 0.00 0.00 53 1014.1
20260504191604 19 0.0 0.0 0.00 0.00 0.00 52 1014.1
20260504190116 20 0.0 0.0 0.00 0.00 0.00 51 1013.9
20260504184607 20 0.0 0.0 0.00 0.00 0.00 51 1013.8
20260504183059 20 0.0 0.0 0.00 0.00 0.00 50 1013.7
20260504181603 20 0.0 0.0 0.00 0.00 0.00 54 1013.8
20260504180100 20 0.0 0.0 0.00 0.00 0.00 58 1013.7
20260504174612 20 0.0 0.0 0.00 0.00 0.00 59 1013.6
20260504173109 21 0.0 0.0 0.00 0.00 0.00 66 1013.6
20260504171600 21 0.0 0.0 0.00 0.00 0.00 65 1013.6
20260504140109 22 0.0 0.0 0.00 0.00 0.00 65 1014.4
20260504130109 22 0.0 0.0 0.00 0.00 0.00 62 1014.9
20260504110119 23 0.0 0.0 0.00 0.00 0.00 56 1015.7
20260504100105 22 0.0 0.0 0.00 0.00 0.00 57 1015.9
20260504090120 21 0.0 0.0 0.00 0.00 0.00 58 1016.0
20260504081608 20 0.0 0.0 0.00 0.00 0.00 58 1016.1